Satellite: MET-3/5
Catalog number: 21655
Epoch time:      09018.56600105
Element set:     544
Inclination:      082.5520 deg
RA of node:       312.2081 deg
Eccentricity:    0.0012584
Arg of perigee:   191.7021 deg
Mean anomaly:     168.3810 deg
Mean motion:   13.17017677 rev/day
Decay rate:        5.1e-07 rev/day^2
Epoch rev:           83793
Checksum:              275

Satellite: MET-2/21
Catalog number: 22782
Epoch time:      09017.83820356
Element set:    0357
Inclination:      082.5503 deg
RA of node:       301.2837 deg
Eccentricity:    0.0023793
Arg of perigee:   050.5898 deg
Mean anomaly:     309.7363 deg
Mean motion:   13.83634571 rev/day
Decay rate:        7.1e-07 rev/day^2
Epoch rev:           77681
Checksum:              319

Satellite: OKEAN-4
Catalog number: 23317
Epoch time:      09017.80650081
Element set:     803
Inclination:      082.5396 deg
RA of node:       114.8262 deg
Eccentricity:    0.0023222
Arg of perigee:   136.8875 deg
Mean anomaly:     223.4176 deg
Mean motion:   14.82668272 rev/day
Decay rate:       1.83e-06 rev/day^2
Epoch rev:           77008
Checksum:              297

Satellite: NOAA-14
Catalog number: 23455
Epoch time:      09018.48629251
Element set:     481
Inclination:      098.9242 deg
RA of node:       096.6107 deg
Eccentricity:    0.0008726
Arg of perigee:   252.9084 deg
Mean anomaly:     107.1160 deg
Mean motion:   14.13755941 rev/day
Decay rate:        6.8e-07 rev/day^2
Epoch rev:           72477
Checksum:              316

Satellite: NOAA-15
Catalog number: 25338
Epoch time:      09018.32792462
Element set:     779
Inclination:      098.5737 deg
RA of node:       010.9138 deg
Eccentricity:    0.0011336
Arg of perigee:   131.6625 deg
Mean anomaly:     228.5527 deg
Mean motion:   14.24741681 rev/day
Decay rate:       -2.4e-07 rev/day^2
Epoch rev:           55543
Checksum:              311

Satellite: RESURS
Catalog number: 25394
Epoch time:      09018.51502767
Element set:     121
Inclination:      098.3597 deg
RA of node:       058.3399 deg
Eccentricity:    0.0001138
Arg of perigee:   328.3701 deg
Mean anomaly:     031.7411 deg
Mean motion:   14.24179210 rev/day
Decay rate:       -1.0e-08 rev/day^2
Epoch rev:           54709
Checksum:              279

Satellite: FENGYUN1
Catalog number: 25730
Epoch time:      09018.90315892
Element set:     665
Inclination:      098.7432 deg
RA of node:       353.6289 deg
Eccentricity:    0.0022299
Arg of perigee:   280.6234 deg
Mean anomaly:     079.2425 deg
Mean motion:   14.07919841 rev/day
Decay rate:       1.64e-06 rev/day^2
Epoch rev:           49931
Checksum:              327

Satellite: OKEAN-0
Catalog number: 25860
Epoch time:      09018.51146859
Element set:     577
Inclination:      097.7708 deg
RA of node:       005.7741 deg
Eccentricity:    0.0000866
Arg of perigee:   039.4889 deg
Mean anomaly:     320.6375 deg
Mean motion:   14.73554330 rev/day
Decay rate:        1.1e-07 rev/day^2
Epoch rev:           51110
Checksum:              302

Satellite: NOAA-16
Catalog number: 26536
Epoch time:      09018.33506641
Element set:     255
Inclination:      099.1733 deg
RA of node:       018.4051 deg
Eccentricity:    0.0010272
Arg of perigee:   345.8163 deg
Mean anomaly:     014.2750 deg
Mean motion:   14.12508927 rev/day
Decay rate:       2.75e-06 rev/day^2
Epoch rev:           42914
Checksum:              282

Satellite: NOAA-17
Catalog number: 27453
Epoch time:      09018.48275663
Element set:     268
Inclination:      098.5071 deg
RA of node:       082.5672 deg
Eccentricity:    0.0011579
Arg of perigee:   196.2978 deg
Mean anomaly:     163.7841 deg
Mean motion:   14.24034858 rev/day
Decay rate:       2.05e-06 rev/day^2
Epoch rev:           34144
Checksum:              331

Satellite: NOAA-18
Catalog number: 28654
Epoch time:      09018.52163529
Element set:     753
Inclination:      098.8930 deg
RA of node:       323.0441 deg
Eccentricity:    0.0015133
Arg of perigee:   067.0627 deg
Mean anomaly:     293.2105 deg
Mean motion:   14.11227539 rev/day
Decay rate:       2.02e-06 rev/day^2
Epoch rev:           18884
Checksum:              295

/EX
SB KEPS @ AMSAT  $ORB09018.M
Orbital Elements  09018.MISC

HR AMSAT ORBITAL ELEMENTS FOR MANNED AND MISCELLANEOUS SATELLITES
FROM WA5QGD FORT WORTH,TX January 18, 2009
Send Subscribe/unsubscribe to KEPS at 
http://www.amsat.org/mailman/listinfo/keps
BID: ORB09018.M
TO ALL RADIO AMATEURS BT

Satellite: HUBBLE
Catalog number: 20580
Epoch time:      09017.33036055
Element set:    0318
Inclination:      028.4705 deg
RA of node:       006.4606 deg
Eccentricity:    0.0003834
Arg of perigee:   140.3851 deg
Mean anomaly:     219.7016 deg
Mean motion:   15.00447313 rev/day
Decay rate:       2.91e-06 rev/day^2
Epoch rev:           82717
Checksum:              257

Satellite: PO-34
Catalog number: 25520
Epoch time:      09018.55332248
Element set:     166
Inclination:      028.4598 deg
RA of node:       176.8338 deg
Eccentricity:    0.0005558
Arg of perigee:   114.8205 deg
Mean anomaly:     245.2972 deg
Mean motion:   15.17285285 rev/day
Decay rate:       3.82e-06 rev/day^2
Epoch rev:           56590
Checksum:              323

